STARLINK-3699, 51966

Orbit data source: Space-Track

STARLINK-3699, 51966 is a payload satellite owned by SpaceX/Seattle (US) in LEO that was launched on Wed, 09 Mar 2022 UTC via an FALCON 9 launch vehicle from the Air Force Eastern Test Range (AFETR). Payload-class satellites include a variety of spacecraft equipped with specific instruments for various scientific and technological missions. These include communications satellites like Starlink; space stations such as the ISS; scientific satellites like the Hubble; Earth observation satellites from companies like Planet Labs, Umbra, and HawkEye 360; GPS; miniature CubeSats for education and research; and military/defense satellites.

Loading next visibility...
Identifier
51966, 2022-025L
Orbit
LEO
Country
Flag of USUS
Related business
Manufacturer
SpaceX/Seattle
Mission
Operational Commercial Communications
Bus & Motor
STARLINK, Unknown motor
Mass
297 kg wet, ~275 kg dry
Launch date (UTC)
2022-03-09 (4 years ago)
Launch vehicle
FALCON 9
Launch site
Air Force Eastern Test Range (AFETR)
Object type
Payload
Rocket body
Debris
Shape & HBR
Box + 1 Pan, 10.1 m
Radar Cross Section
13.562 m², Large (>1 m²)

Expand to show TLE details & history
Last TLE update: 13 hours ago

TLE from 13 hours ago
0 STARLINK-3699
1 51966U 22025L   25346.91985175 -.00000081  00000-0  13470-4 0  9992
2 51966  53.0551  60.3524 0001251  94.6132 265.5000 15.06393341207846
Epoch: 2025-12-12T22:04Z
TLE epoch observation values (Epoch: 2025-12-12T22:04:35.191Z)
Latitude
Longitude
7.35121°
Altitude
548.179 km
Speed
7.589 km/s
True Right ascension
04h 01m 24s
True Declination
0° 00' 00"
Sunlit
Object was in full shadow at epoch
Visualization orbit readout
Latitude
Unknown
Longitude
Unknown
Altitude
Unknown
Speed
Unknown
Apparent Right ascension
Unknown
Apparent Declination
Unknown
Sunlit
N/A
Visualization observer readout
Local Sidereal Time
09:13:59
Azimuth
Unknown
Elevation
Unknown
Doppler factor
Unknown
Orbital elements
Apogee altitude
548.369 km
Perigee altitude
546.636 km
Semi-major axis
6,925.64 km
Eccentricity
0.00013
Inclination
53.0551°
RAAN
60.3524°
Arg. of periapsis
94.6132°
True anomaly
265.48571°
Mean anomaly
265.5°
Eccentric anomaly
265.49285°
Mean motion
3.76577 °/min
Orbital period
95.6 mins
BSTAR
0.00001347
Loading maneuver chart data...
Computing Atmospheric mass density...
Loading historical data...
Loading historical data...
Loading historical data...
Loading historical data...
Loading historical data...
Loading historical data...
Loading historical data...

Documentation

Showing up to 5 results
|